Location: ???????
(38.3360°N, 23.6977°E)
Time: 22:34:12
(UTC+00:00)

SJ-12 - Pass Details

Date: 17 November 2025
Orbit: 517 x 528 km, 97.8° (Epoch: 09 December)

Event Time Altitude Azimuth Distance (km) Brightness Sun altitude
Rises 15:39:11 0° 150° (SSE) 2,643 7.2 -5.9°
Reaches altitude 10° 15:41:22 10° 143° (SE) 1,756 6.2 -6.3°
Maximum altitude 15:44:54 39° 73° (ENE) 788 4.1 -7.0°
Drops below altitude 10° 15:48:28 10° 4° (N) 1,762 6.2 -7.6°
Sets 15:50:39 0° 356° (N) 2,652 7.2 -8.1°
